Location: Cactus School
(34.5700°N, 118.0931°W)
Time: 01:39:37
(UTC-07:00)

Courier 1B - Pass Details

Date: 30 April 2024
Orbit: 962 x 1208 km, 28.3° (Epoch: 23 May)

Event Time Altitude Azimuth Distance (km) Brightness Sun altitude
Rises 22:27:33 0° 243° (WSW) 4,050 10.9 -29.9°
Reaches altitude 10° 22:30:28 10° 237° (WSW) 3,109 10.2 -30.2°
Enters shadow 22:34:14 29° 220° (SW) 2,048 9.0 -30.7°
